User: anonymous   Login
Location: Clinton NY
(43.0598°N, 75.3602°W)
Time: 12:22:19
(UTC-05:00)
Language:

Iridium 42 - Orbit

View from above orbital plane
View from above orbital plane
View from above satellite
View from above satellite

Ground track
Ground track

The orbit data is extracted from the following two-line orbital elements,

1 25077U 97077A   16037.53587745  .00000232  00000-0  75307-4 0  9995
2 25077  86.3946 229.5236 0002267  90.9468 269.1988 14.34450156950999
Epoch (UTC): 06 February 2016 12:51:39
Eccentricity: 0.0002267
inclination: 86.3946°
perigee height: 775 km
apogee height: 778 km
right ascension of ascending node: 229.5236°
argument of perigee: 90.9468°
revolutions per day: 14.34450156
mean anomaly at epoch: 269.1988°
orbit number at epoch: 95099

The dashed part of the orbit path shows where the satellite is in the earth's shadow,  

DLR